Location: Csohesd
(46.2500°N, 22.6167°E)
Time: 04:40:16
(UTC+00:00)

H-2A R/B - Pass Details

Date: 21 October 2021
Orbit: 528 x 651 km, 98.3° (Epoch: 30 November)

Event Time Altitude Azimuth Distance (km) Brightness Sun altitude
Rises 16:18:16 0° 140° (SE) 2,905 5.7 -8.6°
Reaches altitude 10° 16:20:39 10° 130° (SE) 1,985 4.8 -9.0°
Maximum altitude 16:24:28 32° 68° (ENE) 1,056 3.2 -9.7°
Drops below altitude 10° 16:28:12 10° 5° (N) 1,932 5.0 -10.3°
Sets 16:30:29 0° 356° (N) 2,816 5.9 -10.7°
